�������l�o���
Date,Time,MP-1(��Sv/h),MP-2(��Sv/h),MP-3(��Sv/h),MP-4(��Sv/h),MP-5(��Sv/h),MP-6(��Sv/h),MP-7(��Sv/h),MP-8(��Sv/h),����,����(m/s),���J
2021/11/27,00:00,0.578,0.871,0.555,1.076,0.754,0.355,0.615,0.579,�k,5.8,��
2021/11/27,00:10,0.578,0.870,0.553,1.076,0.752,0.354,0.616,0.579,�k�k��,5.8,��
2021/11/27,00:20,0.578,0.870,0.555,1.076,0.754,0.354,0.615,0.581,�k�k��,6.2,��
2021/11/27,00:30,0.580,0.870,0.555,1.075,0.752,0.354,0.618,0.579,�k�k��,5.0,��
2021/11/27,00:40,0.578,0.871,0.556,1.075,0.753,0.356,0.615,0.580,�k�k��,3.4,��
2021/11/27,00:50,0.580,0.869,0.554,1.076,0.753,0.354,0.617,0.582,�k,4.0,��
2021/11/27,01:00,0.580,0.871,0.555,1.078,0.752,0.355,0.616,0.579,�k�k��,4.5,��
2021/11/27,01:10,0.579,0.869,0.553,1.076,0.752,0.354,0.616,0.580,�k��,5.0,��
2021/11/27,01:20,0.580,0.868,0.556,1.079,0.751,0.353,0.617,0.580,�k�k��,5.8,��
2021/11/27,01:30,0.579,0.872,0.555,1.078,0.754,0.353,0.616,0.580,�k��,4.7,��
2021/11/27,01:40,0.580,0.869,0.553,1.077,0.754,0.354,0.615,0.579,�k��,5.0,��
2021/11/27,01:50,0.580,0.870,0.554,1.076,0.753,0.352,0.617,0.580,�k�k��,4.7,��
2021/11/27,02:00,0.579,0.868,0.555,1.077,0.753,0.354,0.617,0.582,�k�k��,3.7,��
2021/11/27,02:10,0.579,0.869,0.553,1.077,0.752,0.353,0.615,0.580,�k�k��,3.1,��
2021/11/27,02:20,0.579,0.868,0.552,1.076,0.752,0.353,0.616,0.579,�k��,3.6,��
2021/11/27,02:30,0.578,0.869,0.554,1.076,0.753,0.352,0.615,0.580,�k��,4.9,��
2021/11/27,02:40,0.578,0.869,0.554,1.074,0.751,0.353,0.617,0.580,�k��,4.9,��
2021/11/27,02:50,0.580,0.870,0.554,1.076,0.751,0.354,0.617,0.580,�k�k��,3.7,��
2021/11/27,03:00,0.578,0.867,0.553,1.075,0.753,0.354,0.617,0.580,�k��,3.5,��
2021/11/27,03:10,0.580,0.871,0.554,1.079,0.754,0.353,0.617,0.579,�k��,5.8,��
2021/11/27,03:20,0.579,0.870,0.553,1.074,0.750,0.353,0.616,0.579,�k��,3.8,��
2021/11/27,03:30,0.579,0.869,0.553,1.076,0.752,0.354,0.614,0.580,�k�k��,6.1,��
2021/11/27,03:40,0.578,0.869,0.554,1.076,0.752,0.353,0.616,0.581,�k��,6.4,��
2021/11/27,03:50,0.578,0.868,0.554,1.076,0.752,0.353,0.616,0.580,�k��,6.1,��
2021/11/27,04:00,0.578,0.869,0.554,1.077,0.751,0.353,0.617,0.581,�k��,5.8,��
2021/11/27,04:10,0.578,0.869,0.554,1.077,0.753,0.354,0.618,0.579,�k�k��,5.7,��
2021/11/27,04:20,0.578,0.870,0.555,1.077,0.754,0.354,0.617,0.580,�k,5.2,��
2021/11/27,04:30,0.578,0.868,0.555,1.076,0.752,0.354,0.618,0.579,�k,5.0,��
2021/11/27,04:40,0.580,0.869,0.554,1.077,0.754,0.353,0.618,0.580,�k,3.8,��
2021/11/27,04:50,0.578,0.868,0.553,1.076,0.752,0.353,0.618,0.580,�k�k��,2.9,��
2021/11/27,05:00,0.579,0.867,0.554,1.075,0.752,0.354,0.617,0.580,�k��,3.5,��
2021/11/27,05:10,0.580,0.868,0.554,1.076,0.751,0.353,0.616,0.580,�k��,3.2,��
2021/11/27,05:20,0.579,0.870,0.556,1.077,0.753,0.353,0.617,0.578,���k��,4.1,��
2021/11/27,05:30,0.579,0.868,0.555,1.076,0.753,0.353,0.616,0.580,�k�k��,5.3,��
2021/11/27,05:40,0.580,0.867,0.554,1.077,0.751,0.353,0.616,0.581,�k��,7.0,��
2021/11/27,05:50,0.578,0.868,0.554,1.078,0.752,0.354,0.616,0.578,�k��,4.7,��
2021/11/27,06:00,0.577,0.868,0.554,1.076,0.751,0.353,0.617,0.580,���k��,4.4,��
2021/11/27,06:10,0.578,0.868,0.555,1.075,0.753,0.353,0.615,0.581,��,2.6,��
2021/11/27,06:20,0.578,0.870,0.552,1.076,0.752,0.352,0.615,0.580,��,2.3,��
2021/11/27,06:30,0.579,0.868,0.555,1.075,0.751,0.354,0.615,0.579,���쐼,1.5,��
2021/11/27,06:40,0.578,0.867,0.552,1.077,0.752,0.352,0.615,0.580,���쐼,3.1,��
2021/11/27,06:50,0.578,0.868,0.554,1.076,0.752,0.354,0.615,0.580,���쐼,2.8,��
2021/11/27,07:00,0.577,0.868,0.553,1.075,0.750,0.354,0.614,0.578,�k��,4.1,��
2021/11/27,07:10,0.577,0.871,0.554,1.075,0.753,0.353,0.616,0.579,�k�k��,4.9,��
2021/11/27,07:20,0.578,0.871,0.553,1.079,0.754,0.352,0.615,0.579,�k�k��,4.2,��
2021/11/27,07:30,0.578,0.870,0.552,1.078,0.751,0.353,0.615,0.580,�k�k��,3.5,��
2021/11/27,07:40,0.577,0.870,0.553,1.078,0.754,0.352,0.614,0.579,��,1.2,��
2021/11/27,07:50,0.577,0.868,0.552,1.076,0.751,0.354,0.615,0.580,-,CALM,��
2021/11/27,08:00,0.580,0.868,0.554,1.077,0.753,0.354,0.615,0.580,�k�k��,1.7,��
2021/11/27,08:10,0.581,0.870,0.553,1.074,0.753,0.354,0.616,0.582,���쐼,1.4,��
2021/11/27,08:20,0.581,0.870,0.553,1.077,0.752,0.353,0.616,0.579,��,2.2,��
2021/11/27,08:30,0.578,0.871,0.555,1.075,0.753,0.353,0.616,0.580,���쐼,3.8,��
2021/11/27,08:40,0.581,0.872,0.554,1.077,0.754,0.353,0.616,0.580,���쐼,3.8,��
2021/11/27,08:50,0.580,0.873,0.555,1.076,0.752,0.354,0.616,0.581,���k��,4.0,��
2021/11/27,09:00,0.580,0.871,0.555,1.078,0.755,0.352,0.615,0.580,���k��,5.4,��
2021/11/27,09:10,0.580,0.872,0.555,1.076,0.755,0.352,0.617,0.580,���k��,3.7,��
2021/11/27,09:20,0.580,0.873,0.554,1.079,0.753,0.354,0.615,0.579,�k��,6.7,�L
2021/11/27,09:30,0.583,0.872,0.554,1.079,0.754,0.353,0.615,0.578,�k��,6.3,�L
2021/11/27,09:40,0.582,0.872,0.557,1.075,0.755,0.353,0.614,0.580,�k��,5.9,��
2021/11/27,09:50,0.582,0.871,0.554,1.078,0.754,0.353,0.616,0.581,�k��,5.9,��
2021/11/27,10:00,0.582,0.872,0.555,1.078,0.753,0.354,0.615,0.580,�k��,8.6,��
2021/11/27,10:10,0.582,0.872,0.555,1.080,0.755,0.353,0.615,0.579,�k��,6.9,��
2021/11/27,10:20,0.582,0.873,0.555,1.078,0.757,0.354,0.614,0.580,�k��,6.9,��
2021/11/27,10:30,0.582,0.874,0.556,1.080,0.755,0.355,0.616,0.579,�k��,4.0,��
2021/11/27,10:40,0.582,0.874,0.555,1.078,0.754,0.355,0.616,0.579,�k��,4.1,��
2021/11/27,10:50,0.583,0.873,0.555,1.077,0.755,0.354,0.615,0.580,���k��,3.9,��
2021/11/27,11:00,0.581,0.872,0.556,1.078,0.756,0.354,0.615,0.581,��,2.6,��
2021/11/27,11:10,0.582,0.873,0.556,1.080,0.757,0.355,0.616,0.580,�k��,4.0,��
2021/11/27,11:20,0.582,0.870,0.555,1.079,0.755,0.356,0.615,0.580,�k�k��,4.3,��
2021/11/27,11:30,0.582,0.872,0.555,1.079,0.757,0.354,0.615,0.581,�k,2.2,��
2021/11/27,11:40,0.582,0.872,0.557,1.081,0.756,0.355,0.615,0.581,�k��,1.2,��
2021/11/27,11:50,0.581,0.871,0.557,1.079,0.759,0.355,0.614,0.582,�k��,1.5,��
2021/11/27,12:00,0.583,0.872,0.556,1.079,0.758,0.353,0.616,0.582,�k,3.8,��
2021/11/27,12:10,0.582,0.872,0.558,1.079,0.758,0.354,0.615,0.581,�k��,3.7,��
2021/11/27,12:20,0.584,0.873,0.558,1.081,0.756,0.354,0.617,0.581,�k��,6.2,��
2021/11/27,12:30,0.583,0.871,0.557,1.079,0.759,0.355,0.616,0.581,�k��,6.4,��
2021/11/27,12:40,0.584,0.872,0.559,1.079,0.758,0.355,0.616,0.583,�k��,7.5,��
2021/11/27,12:50,0.584,0.874,0.557,1.081,0.759,0.354,0.615,0.582,�k��,6.8,��
2021/11/27,13:00,0.585,0.874,0.558,1.081,0.757,0.356,0.616,0.581,���k��,5.3,��
2021/11/27,13:10,0.585,0.875,0.558,1.079,0.757,0.356,0.616,0.581,�k��,6.1,��
2021/11/27,13:20,0.584,0.873,0.558,1.080,0.758,0.356,0.616,0.578,���k��,6.2,��
2021/11/27,13:30,0.584,0.874,0.557,1.083,0.757,0.354,0.616,0.579,���k��,5.9,��
2021/11/27,13:40,0.585,0.874,0.558,1.080,0.758,0.355,0.616,0.579,��,4.8,��
2021/11/27,13:50,0.586,0.875,0.557,1.081,0.758,0.355,0.618,0.579,��,6.9,��
2021/11/27,14:00,0.584,0.874,0.559,1.080,0.760,0.355,0.618,0.578,��,7.4,��
2021/11/27,14:10,0.583,0.874,0.558,1.080,0.760,0.355,0.618,0.579,��,7.8,��
2021/11/27,14:20,0.583,0.872,0.558,1.079,0.758,0.355,0.618,0.579,���k��,8.5,��
2021/11/27,14:30,0.582,0.873,0.559,1.082,0.758,0.354,0.617,0.579,���k��,6.9,��
2021/11/27,14:40,0.581,0.875,0.559,1.080,0.759,0.355,0.616,0.579,���k��,5.0,��
2021/11/27,14:50,0.583,0.874,0.558,1.084,0.757,0.354,0.618,0.581,��,5.1,��
2021/11/27,15:00,0.581,0.875,0.559,1.081,0.759,0.355,0.617,0.582,��,5.9,��
2021/11/27,15:10,0.582,0.879,0.555,1.082,0.759,0.354,0.619,0.583,��,5.6,��
2021/11/27,15:20,0.583,0.876,0.558,1.082,0.757,0.355,0.618,0.580,��,5.0,��
2021/11/27,15:30,0.582,0.876,0.559,1.082,0.759,0.354,0.617,0.581,��,4.9,��
2021/11/27,15:40,0.583,0.877,0.557,1.082,0.756,0.355,0.617,0.580,��,3.5,��
2021/11/27,15:50,0.583,0.877,0.559,1.083,0.757,0.355,0.619,0.582,���k��,4.2,��
2021/11/27,16:00,0.582,0.875,0.558,1.083,0.759,0.353,0.618,0.580,���k��,6.1,��
2021/11/27,16:10,0.583,0.875,0.557,1.082,0.757,0.353,0.619,0.579,��,5.7,��
2021/11/27,16:20,0.583,0.877,0.558,1.084,0.758,0.354,0.618,0.581,��,4.9,��
2021/11/27,16:30,0.583,0.876,0.558,1.083,0.758,0.353,0.619,0.580,��,4.8,��
2021/11/27,16:40,0.580,0.875,0.558,1.081,0.758,0.354,0.618,0.581,��,5.7,��
2021/11/27,16:50,0.582,0.876,0.556,1.081,0.757,0.354,0.617,0.582,��,6.1,��
2021/11/27,17:00,0.584,0.876,0.557,1.082,0.757,0.354,0.617,0.581,���k��,4.9,��
2021/11/27,17:10,0.582,0.876,0.556,1.080,0.755,0.354,0.618,0.581,��,4.8,��
2021/11/27,17:20,0.581,0.875,0.556,1.080,0.756,0.354,0.617,0.581,��,5.6,��
2021/11/27,17:30,0.581,0.876,0.557,1.081,0.757,0.354,0.617,0.579,��,4.9,��
2021/11/27,17:40,0.581,0.876,0.558,1.081,0.758,0.356,0.615,0.579,��,4.3,��
2021/11/27,17:50,0.582,0.873,0.557,1.081,0.757,0.352,0.616,0.579,��,5.2,��
2021/11/27,18:00,0.582,0.875,0.558,1.080,0.756,0.354,0.617,0.581,���k��,5.7,��
2021/11/27,18:10,0.582,0.877,0.557,1.082,0.759,0.355,0.616,0.580,���k��,6.3,��
2021/11/27,18:20,0.583,0.873,0.556,1.082,0.759,0.354,0.615,0.580,���k��,6.9,��
2021/11/27,18:30,0.581,0.874,0.555,1.083,0.757,0.353,0.616,0.580,���k��,6.1,��
2021/11/27,18:40,0.581,0.875,0.559,1.081,0.757,0.353,0.617,0.581,���k��,6.8,��
2021/11/27,18:50,0.582,0.875,0.557,1.081,0.757,0.353,0.617,0.580,���k��,6.1,��
2021/11/27,19:00,0.581,0.874,0.558,1.080,0.756,0.353,0.617,0.580,�k��,7.0,��
2021/11/27,19:10,0.580,0.875,0.556,1.082,0.759,0.352,0.617,0.581,�k��,6.1,��
2021/11/27,19:20,0.582,0.874,0.557,1.081,0.755,0.353,0.616,0.580,���k��,4.4,��
2021/11/27,19:30,0.582,0.876,0.555,1.081,0.757,0.354,0.616,0.581,���k��,5.3,��
2021/11/27,19:40,0.581,0.875,0.557,1.080,0.757,0.353,0.618,0.581,�k��,6.2,��
2021/11/27,19:50,0.583,0.875,0.557,1.082,0.758,0.355,0.615,0.581,�k��,5.3,��
2021/11/27,20:00,0.580,0.875,0.557,1.081,0.757,0.352,0.616,0.580,�k��,3.4,��
2021/11/27,20:10,0.582,0.876,0.555,1.081,0.756,0.354,0.616,0.581,�k��,4.4,��
2021/11/27,20:20,0.581,0.877,0.556,1.081,0.757,0.352,0.615,0.581,�k��,3.9,��
2021/11/27,20:30,0.581,0.875,0.556,1.079,0.756,0.352,0.615,0.581,�k��,5.5,��
2021/11/27,20:40,0.581,0.876,0.556,1.081,0.757,0.353,0.617,0.581,�k��,5.9,��
2021/11/27,20:50,0.582,0.874,0.555,1.079,0.756,0.353,0.616,0.581,�k��,4.6,��
2021/11/27,21:00,0.581,0.875,0.557,1.079,0.756,0.352,0.615,0.582,�k��,4.2,��
2021/11/27,21:10,0.582,0.876,0.557,1.081,0.757,0.352,0.617,0.581,�k��,6.0,��
2021/11/27,21:20,0.582,0.876,0.556,1.081,0.757,0.354,0.614,0.580,�k��,7.8,��
2021/11/27,21:30,0.580,0.874,0.557,1.082,0.757,0.352,0.615,0.581,�k��,7.7,��
2021/11/27,21:40,0.581,0.877,0.555,1.082,0.757,0.353,0.615,0.580,�k��,8.1,��
2021/11/27,21:50,0.582,0.873,0.558,1.081,0.757,0.353,0.616,0.580,�k��,7.8,��
2021/11/27,22:00,0.581,0.877,0.556,1.081,0.756,0.353,0.616,0.582,�k��,7.5,��
2021/11/27,22:10,0.582,0.877,0.556,1.082,0.757,0.353,0.617,0.580,�k��,7.1,��
2021/11/27,22:20,0.582,0.875,0.555,1.080,0.756,0.352,0.613,0.582,�k��,5.1,��
2021/11/27,22:30,0.583,0.875,0.557,1.081,0.760,0.352,0.615,0.580,�k��,7.3,��
2021/11/27,22:40,0.582,0.876,0.557,1.082,0.756,0.354,0.616,0.580,�k��,7.4,��
2021/11/27,22:50,0.583,0.874,0.555,1.080,0.757,0.352,0.616,0.579,�k��,6.6,��
2021/11/27,23:00,0.580,0.876,0.556,1.082,0.756,0.353,0.615,0.578,�k��,8.5,��
2021/11/27,23:10,0.583,0.876,0.557,1.082,0.758,0.353,0.617,0.580,�k��,6.9,��
2021/11/27,23:20,0.582,0.878,0.557,1.080,0.757,0.355,0.616,0.581,�k��,8.1,��
2021/11/27,23:30,0.581,0.876,0.557,1.080,0.757,0.355,0.617,0.580,�k��,6.6,��
2021/11/27,23:40,0.582,0.876,0.555,1.080,0.757,0.353,0.617,0.581,�k��,6.0,��
2021/11/27,23:50,0.581,0.876,0.557,1.081,0.757,0.353,0.617,0.581,�k��,6.4,��
